Flag for U.S.A. Weather past 2 weeks in Kalamazoo, Michigan, U.S.A.

Now
64 °F

Partly sunny.


Feels Like: 64 °F
Forecast: 50 / 79 °F
Wind: 6 mph from North

Location: Kalamazoo / Battle Creek International Airport

Current Time: May 6, 2015 at 1:40:33 PM

Latest Report: May 6, 2015 at 12:53 PM


Visibility: 5 mi

Pressure: 30.22 "Hg

Humidity: 78%

Dew point: 57 °F

Location of KalamazooLocation

Historic Weather in Kalamazoo — Graph

°F

Kalamazoo temperature yesterday

Maximum temperature yesterday: 59 °F (at 1:53 AM)
Minimum temperature yesterday: 50 °F (at 4:53 PM)
Average temperature yesterday: 53 °F

Past Weeks' High & Low Weather Summary

 TemperatureHumidityPressure
High79 °F (May 3, 1:53 PM)93% (May 6, 4:53 AM)30.29 "Hg (May 6, 4:53 AM)
Low31 °F (Apr 24, 5:53 AM)22% (Apr 24, 5:53 PM)29.61 "Hg (Apr 21, 4:53 PM)
Average51 °F60%30.00 "Hg
* Reported Apr 21 11:53 AM — May 6 11:53 AM, Kalamazoo, Weather by CustomWeather, © 2015

Note: Actual official high and low records may vary slightly from our data, if they occured in-between our weather recording intervals... More about our weather records

Advertising

Kalamazoo weather history for previous 24 hours

 ConditionsComfort  
Time TempWeatherWind HumidityBarometerVisibility
11:53 AM
Wed, May 6
61 °FLow clouds.3 mph83%30.24 "Hg5 mi
10:53 AM59 °FFog.7 mph87%30.24 "Hg6 mi
9:53 AM56 °FFog.6 mph93%30.25 "Hg1 mi
8:53 AM54 °FFog.3 mph93%30.24 "Hg1 mi
7:53 AM53 °FFog.7 mph93%30.24 "Hg0 mi
6:53 AM52 °FFog.3 mph93%30.24 "Hg0 mi
5:53 AM52 °FFog.3 mph93%30.23 "Hg1 mi
4:53 AM52 °FFog.5 mph93%30.23 "Hg2 mi
4:00 AM52 °FFog.5 mph89%30.22 "Hg2 mi
2:53 AM52 °FFog.5 mph89%30.23 "Hg2 mi
1:53 AM52 °FFog.3 mph89%30.25 "Hg3 mi
12:53 AM52 °FFog.5 mph89%30.26 "Hg3 mi
11:53 PM
Tue, May 5
52 °FFog.3 mph89%30.26 "Hg5 mi
11:01 PM52 °FLight rain. Fog.5 mph89%30.25 "Hg5 mi
9:53 PM52 °FLight rain. Mostly cloudy.3 mph89%30.26 "Hg8 mi
8:53 PM52 °FLight rain. Mostly cloudy.6 mph89%30.25 "Hg9 mi
7:53 PM52 °FLight rain. Mostly cloudy.5 mph89%30.24 "Hg8 mi
6:53 PM52 °FLow clouds.3 mph86%30.25 "Hg10 mi
5:53 PM51 °FLow clouds.7 mph86%30.25 "Hg10 mi
4:53 PM50 °FLight rain. Low clouds.9 mph89%30.27 "Hg10 mi
3:53 PM51 °FLight rain. Fog.6 mph89%30.28 "Hg5 mi
2:53 PM51 °FLight rain. Low clouds.7 mph89%30.29 "Hg7 mi
1:53 PM51 °FLight rain. Overcast.6 mph86%30.29 "Hg10 mi
Weather by CustomWeather, © 2015

See weather overviewHow to use our weather pages